Flag for U.S.A. Weather past 2 weeks in Nashville, Tennessee, U.S.A.

Now
53 °F

Passing clouds.


Feels Like: 49 °F
Forecast: 43 / 64 °F
Wind: 12 mph from Northeast

Location: Nashville International Airport

Current Time: Oct 22, 2014 at 10:47:26 AM

Latest Report: Oct 22, 2014 at 9:53 AM


Visibility: 10 mi

Pressure: 30.26 "Hg

Humidity: 64%

Dew point: 41 °F

Location of NashvilleLocation

Historic Weather in Nashville — Graph

°F

Nashville temperature yesterday

Maximum temperature yesterday: 73 °F (at 2:53 PM)
Minimum temperature yesterday: 47 °F (at 5:53 AM)
Average temperature yesterday: 59 °F

Past Weeks' High & Low Weather Summary

 TemperatureHumidityPressure
High83 °F (Oct 8, 2:53 PM)100% (Oct 8, 5:53 AM)30.26 "Hg (Oct 8, 5:53 AM)
Low44 °F (Oct 20, 5:53 AM)22% (Oct 9, 11:53 AM)29.60 "Hg (Oct 14, 3:53 AM)
Average62 °F80%29.97 "Hg
* Reported Oct 7 8:53 AM — Oct 22 8:53 AM, Nashville, Weather by CustomWeather, © 2014

Note: Actual official high and low records may vary slightly from our data, if they occured in-between our weather recording intervals... More about our weather records

Advertising

Nashville weather history for previous 24 hours

 ConditionsComfort  
Time TempWeatherWind HumidityBarometerVisibility
8:53 AM
Oct 22
50 °FSunny.12 mph77%30.26 "Hg10 mi
7:53 AM48 °FSunny.7 mph83%30.23 "Hg10 mi
6:53 AM44 °FClear.5 mph89%30.22 "Hg10 mi
5:53 AM44 °FClear.5 mph89%30.20 "Hg10 mi
4:53 AM45 °FClear.6 mph86%30.18 "Hg10 mi
3:53 AM45 °FClear.5 mph86%30.16 "Hg10 mi
2:53 AM47 °FClear.5 mph83%30.15 "Hg10 mi
1:53 AM50 °FClear.3 mph77%30.14 "Hg10 mi
12:53 AM51 °FClear.5 mph74%30.13 "Hg10 mi
11:53 PM
Oct 21
52 °FClear.5 mph72%30.14 "Hg10 mi
10:53 PM53 °FClear.8 mph72%30.14 "Hg10 mi
9:53 PM54 °FClear.8 mph67%30.12 "Hg10 mi
8:53 PM57 °FClear.10 mph62%30.10 "Hg10 mi
7:53 PM59 °FClear.13 mph60%30.08 "Hg10 mi
6:53 PM62 °FClear.8 mph56%30.06 "Hg10 mi
5:53 PM66 °FSunny.9 mph47%30.04 "Hg10 mi
4:53 PM70 °FPassing clouds.10 mph38%30.02 "Hg10 mi
3:53 PM72 °FPassing clouds.10 mph38%30.02 "Hg10 mi
2:53 PM73 °FPassing clouds.9 mph38%30.02 "Hg10 mi
1:53 PM72 °FPassing clouds.8 mph40%30.02 "Hg10 mi
12:53 PM71 °FPassing clouds.12 mph39%30.04 "Hg10 mi
11:53 AM70 °FPassing clouds.7 mph46%30.06 "Hg10 mi
10:53 AM67 °FSunny.6 mph49%30.07 "Hg10 mi
Weather by CustomWeather, © 2014

See weather overviewHow to use our weather pages